Previsão horária em Liège

Hoje, 23 Junho, Quarta-feira

Tempo Temperatura Precipitação Vento Pressão Humidade
00:00 +12°C° 0 mm 3 m/s 754 mmHg 97%
01:00 +12°C° 0 mm 3 m/s 754 mmHg 97%
02:00 +12°C° 0 mm 3 m/s 755 mmHg 97%
03:00 +12°C° 0 mm 3 m/s 755 mmHg 97%
04:00 +12°C° 0.1 mm 3 m/s 755 mmHg 97%
05:00 +12°C° 0.1 mm 2 m/s 755 mmHg 97%
06:00 +12°C° 0.1 mm 2 m/s 755 mmHg 98%
07:00 +13°C° 0 mm 2 m/s 755 mmHg 96%
08:00 +12°C° 0 mm 3 m/s 756 mmHg 95%
09:00 +13°C° 0 mm 3 m/s 756 mmHg 93%
10:00 +14°C° 0 mm 3 m/s 756 mmHg 88%
11:00 +16°C° 0 mm 3 m/s 756 mmHg 83%
12:00 +17°C° 0 mm 3 m/s 756 mmHg 78%
13:00 +18°C° 0 mm 3 m/s 756 mmHg 75%
14:00 +18°C° 0 mm 3 m/s 756 mmHg 73%
15:00 +19°C° 0 mm 3 m/s 756 mmHg 70%
16:00 +18°C° 0 mm 3 m/s 755 mmHg 73%
17:00 +18°C° 0 mm 3 m/s 755 mmHg 75%
18:00 +18°C° 0 mm 3 m/s 755 mmHg 77%
19:00 +17°C° 0 mm 3 m/s 756 mmHg 80%
20:00 +16°C° 0 mm 3 m/s 756 mmHg 83%
21:00 +15°C° 0 mm 2 m/s 756 mmHg 86%
22:00 +14°C° 0 mm 2 m/s 756 mmHg 88%
23:00 +13°C° 0 mm 2 m/s 756 mmHg 89%

Amanhã, 24 Junho, Quinta-feira

Tempo Temperatura Precipitação Vento Pressão Humidade
00:00 +13°C° 0 mm 2 m/s 756 mmHg 91%
01:00 +13°C° 0 mm 2 m/s 756 mmHg 91%
02:00 +13°C° 0 mm 1 m/s 756 mmHg 92%
03:00 +12°C° 0 mm 1 m/s 756 mmHg 93%
04:00 +13°C° 0 mm 2 m/s 756 mmHg 92%
05:00 +14°C° 0 mm 2 m/s 756 mmHg 90%
06:00 +15°C° 0 mm 2 m/s 755 mmHg 89%
07:00 +16°C° 0.1 mm 3 m/s 755 mmHg 87%
08:00 +16°C° 0.1 mm 3 m/s 755 mmHg 84%
09:00 +17°C° 0.1 mm 3 m/s 755 mmHg 82%
10:00 +18°C° 0.7 mm 3 m/s 755 mmHg 82%
11:00 +18°C° 0.7 mm 3 m/s 755 mmHg 83%
12:00 +18°C° 0.7 mm 3 m/s 755 mmHg 83%
13:00 +18°C° 1.5 mm 3 m/s 755 mmHg 87%
14:00 +17°C° 1.5 mm 3 m/s 755 mmHg 91%
15:00 +16°C° 1.5 mm 3 m/s 755 mmHg 94%
16:00 +16°C° 0.4 mm 2 m/s 755 mmHg 94%
17:00 +16°C° 0.4 mm 2 m/s 755 mmHg 95%
18:00 +16°C° 0.4 mm 2 m/s 755 mmHg 95%
19:00 +15°C° 0.2 mm 2 m/s 755 mmHg 95%
20:00 +15°C° 0.2 mm 2 m/s 755 mmHg 94%
21:00 +14°C° 0.2 mm 2 m/s 755 mmHg 94%
22:00 +14°C° 0.3 mm 2 m/s 755 mmHg 94%
23:00 +13°C° 0.3 mm 2 m/s 755 mmHg 93%

Depois de amanhã, 25 Junho, Sexta-feira

Tempo Temperatura Precipitação Vento Pressão Humidade
00:00 +13°C° 0.3 mm 2 m/s 755 mmHg 93%
01:00 +13°C° 0.3 mm 2 m/s 755 mmHg 93%
02:00 +13°C° 0.3 mm 2 m/s 755 mmHg 93%
03:00 +12°C° 0.3 mm 2 m/s 755 mmHg 93%
04:00 +12°C° 0.2 mm 2 m/s 755 mmHg 92%
05:00 +12°C° 0.2 mm 2 m/s 755 mmHg 90%
06:00 +13°C° 0.2 mm 2 m/s 756 mmHg 89%
07:00 +14°C° 0 mm 2 m/s 755 mmHg 83%
08:00 +16°C° 0 mm 2 m/s 755 mmHg 78%
09:00 +17°C° 0 mm 3 m/s 755 mmHg 72%
10:00 +18°C° 0 mm 3 m/s 755 mmHg 66%
11:00 +20°C° 0 mm 3 m/s 755 mmHg 60%
12:00 +21°C° 0 mm 4 m/s 755 mmHg 55%
13:00 +21°C° 0 mm 4 m/s 754 mmHg 56%
14:00 +21°C° 0 mm 4 m/s 754 mmHg 58%
15:00 +21°C° 0 mm 4 m/s 754 mmHg 59%
16:00 +20°C° 0.1 mm 4 m/s 754 mmHg 66%
17:00 +19°C° 0.1 mm 4 m/s 754 mmHg 73%
18:00 +18°C° 0.1 mm 4 m/s 755 mmHg 80%
19:00 +16°C° 0 mm 3 m/s 755 mmHg 84%
20:00 +15°C° 0 mm 2 m/s 755 mmHg 88%
21:00 +14°C° 0 mm 1 m/s 755 mmHg 91%
22:00 +14°C° 0 mm 1 m/s 755 mmHg 92%
23:00 +14°C° 0 mm 1 m/s 755 mmHg 92%

26 Junho, Sábado

Tempo Temperatura Precipitação Vento Pressão Humidade
00:00 +14°C° 0 mm 1 m/s 755 mmHg 92%
01:00 +14°C° 0 mm 1 m/s 755 mmHg 92%
02:00 +14°C° 0 mm 1 m/s 755 mmHg 91%
03:00 +14°C° 0 mm 1 m/s 754 mmHg 91%
04:00 +15°C° 0 mm 1 m/s 754 mmHg 88%
05:00 +16°C° 0 mm 1 m/s 754 mmHg 86%
06:00 +16°C° 0 mm 1 m/s 754 mmHg 83%
07:00 +19°C° 0 mm 1 m/s 754 mmHg 78%
08:00 +20°C° 0 mm 1 m/s 754 mmHg 72%
09:00 +21°C° 0 mm 1 m/s 754 mmHg 66%
10:00 +22°C° 0 mm 1 m/s 754 mmHg 63%
11:00 +23°C° 0 mm 1 m/s 754 mmHg 60%
12:00 +24°C° 0 mm 1 m/s 754 mmHg 57%
13:00 +24°C° 0.2 mm 1 m/s 753 mmHg 60%
14:00 +24°C° 0.2 mm 2 m/s 753 mmHg 62%
15:00 +24°C° 0.2 mm 2 m/s 753 mmHg 64%
16:00 +23°C° 0.2 mm 1 m/s 753 mmHg 68%
17:00 +23°C° 0.2 mm 1 m/s 752 mmHg 72%
18:00 +22°C° 0.2 mm 1 m/s 752 mmHg 76%
19:00 +21°C° 0 mm 1 m/s 752 mmHg 78%
20:00 +19°C° 0 mm 1 m/s 752 mmHg 80%
21:00 +18°C° 0 mm 1 m/s 752 mmHg 82%
22:00 +18°C° 0 mm 1 m/s 752 mmHg 83%
23:00 +16°C° 0 mm 1 m/s 752 mmHg 84%

27 Junho, Domingo

Tempo Temperatura Precipitação Vento Pressão Humidade
00:00 +16°C° 0 mm 1 m/s 751 mmHg 85%
01:00 +16°C° 0 mm 2 m/s 751 mmHg 84%
02:00 +16°C° 0 mm 2 m/s 751 mmHg 84%
03:00 +16°C° 0 mm 2 m/s 750 mmHg 83%
04:00 +17°C° 0 mm 2 m/s 750 mmHg 82%
05:00 +18°C° 0 mm 2 m/s 750 mmHg 81%
06:00 +20°C° 0 mm 1 m/s 750 mmHg 81%
07:00 +20°C° 0.1 mm 1 m/s 750 mmHg 83%
08:00 +20°C° 0.1 mm 1 m/s 751 mmHg 85%
09:00 +20°C° 0.1 mm 1 m/s 751 mmHg 88%
10:00 +20°C° 0.6 mm 1 m/s 751 mmHg 90%
11:00 +20°C° 0.6 mm 1 m/s 751 mmHg 91%
12:00 +20°C° 0.6 mm 1 m/s 751 mmHg 93%
13:00 +20°C° 0.6 mm 1 m/s 751 mmHg 93%
14:00 +20°C° 0.6 mm 1 m/s 751 mmHg 92%
15:00 +19°C° 0.6 mm 2 m/s 751 mmHg 91%
16:00 +20°C° 0.6 mm 1 m/s 750 mmHg 93%
17:00 +20°C° 0.6 mm 1 m/s 750 mmHg 94%
18:00 +19°C° 0.6 mm 1 m/s 750 mmHg 96%
19:00 +19°C° 0.4 mm 1 m/s 750 mmHg 96%
20:00 +18°C° 0.4 mm 2 m/s 750 mmHg 96%
21:00 +17°C° 0.4 mm 2 m/s 750 mmHg 96%
22:00 +17°C° 0.5 mm 2 m/s 750 mmHg 96%
23:00 +17°C° 0.5 mm 2 m/s 750 mmHg 96%

28 Junho, Segunda-feira

Tempo Temperatura Precipitação Vento Pressão Humidade
00:00 +17°C° 0.5 mm 2 m/s 750 mmHg 96%
01:00 +17°C° 0.2 mm 3 m/s 750 mmHg 96%
02:00 +16°C° 0.2 mm 3 m/s 750 mmHg 95%
03:00 +15°C° 0.2 mm 4 m/s 750 mmHg 95%
04:00 +14°C° 0 mm 4 m/s 751 mmHg 94%
05:00 +14°C° 0 mm 4 m/s 751 mmHg 93%
06:00 +13°C° 0 mm 4 m/s 751 mmHg 92%
07:00 +14°C° 0 mm 4 m/s 752 mmHg 88%
08:00 +14°C° 0 mm 4 m/s 752 mmHg 84%
09:00 +15°C° 0 mm 4 m/s 752 mmHg 79%
10:00 +17°C° 0 mm 4 m/s 752 mmHg 72%
11:00 +19°C° 0 mm 3 m/s 752 mmHg 64%
12:00 +21°C° 0 mm 3 m/s 752 mmHg 57%
13:00 +20°C° 0.1 mm 3 m/s 752 mmHg 61%
14:00 +19°C° 0.1 mm 3 m/s 752 mmHg 66%
15:00 +18°C° 0.1 mm 3 m/s 753 mmHg 70%
16:00 +18°C° 0.3 mm 3 m/s 753 mmHg 76%
17:00 +17°C° 0.3 mm 2 m/s 753 mmHg 81%
18:00 +16°C° 0.3 mm 2 m/s 753 mmHg 87%
19:00 +15°C° 0.4 mm 2 m/s 753 mmHg 89%
20:00 +14°C° 0.4 mm 2 m/s 753 mmHg 91%
21:00 +14°C° 0.4 mm 2 m/s 753 mmHg 93%
22:00 +14°C° 0.2 mm 2 m/s 753 mmHg 94%
23:00 +14°C° 0.2 mm 2 m/s 753 mmHg 95%
Mostrar mais

Necessitamos do seu Consentimento

A Meteoprog e os seus Fornecedores de Serviços podem armazenar e aceder a dados pessoais como cookies, identificadores do dispositivo ou outras tecnologias semelhantes existentes no seu dispositivo e processar estes dados para personalizar conteúdos e anúncios, assim como funcionalidades nas redes sociais e análise de tráfego.

  • Armazenar e/ou aceder a informações no seu dispositivo

    Os cookies, identificadores do dispositivo ou outras informações podem ser armazenados ou acedidos no seu dispositivo, para os fins acima indicados.

  • Anúncios e conteúdos personalizados, medição de anúncios e conteúdos, dados sobre o público-alvo e desenvolvimento de produtos

    Os anúncios e os conteúdos podem ser personalizados com base num perfil. Podem ser adicionados dados adicionais para uma maior personalização dos anúncios e dos conteúdos. A eficácia dos anúncios e dos conteúdos pode ser medida. Podem ser obtidas informações sobre o público que visualizou os anúncios e os conteúdos. Estes dados podem ser usados para desenvolver ou melhorar sistemas, softwares ou a experiência do utilizador.

Ao clicar em "Eu concordo”, permitirá o uso de cookies, identificadores do dispositivo e web beacons mencionados ou outras tecnologias semelhantes. As configurações do navegador do seu dispositivo podem ser alteradas.

Para certos fins, podem ser invocados interesses legítimos ao invés de consentimento. Pode ler mais informação sobre este assunto na nossa Política de Privacidade e Cookies.